Location: Ch�tillon
(48.8024°N, 2.2935°E)
Time: 09:04:48
(UTC+00:00)

LO-87 - Pass Details

Date: 06 July 2022
Orbit: 451 x 466 km, 97.4° (Epoch: 09 August)

Event Time Altitude Azimuth Distance (km) Brightness Sun altitude
Exits shadow 23:53:50 32° 245° (WSW) 824 ? -18.6°
Maximum altitude 23:54:18 33° 263° (W) 798 ? -18.6°
Drops below altitude 10° 23:57:31 10° 329° (NNW) 1,632 ? -18.6°
Sets 23:59:43 0° 339° (NNW) 2,517 ? -18.6°
